Overblog Suivre ce blog
Editer l'article Administration Créer mon blog

Présentation

  • : Rederien Plouber
  • Rederien Plouber
  • : Association sportive des coureurs à pieds de Ploubezre.
  • Contact

Le Trail Des 2 Rives

Recherche

Texte Libre

 

Il y a actuellement    personne(s) sur ce blog.

Nombre total de visites :

compteur pour blog

1 mai 2011 7 01 /05 /mai /2011 00:00

Le classement du 13 km :

 

Classement Temps Nom et Prénom Catégorie Classement par Catégorie
1 00:50:40 LE QUELLENEC Gurvan SE 1
2 00:52:18 LE VAILLANT Christian V1 1
3 00:53:30 CHAUVEL Jerome SE 2
4 00:53:32 HASCOET Stephane V1 2
5 00:54:23 LE COURRIARD Lionel SE 3
6 00:55:02 ARZUL Bertrand SE 4
7 00:55:41 VENAULT Patrice V2 1
8 00:56:30 LE ROUX Dominique V1 3
9 00:56:34 LARIFLA Eddy SE 5
10 00:56:35 LE ROUX Vincent SE 6
11 00:56:38 LE GALL Jean luc V1 4
12 00:56:57 THEPAULT Charlotte ES 1
13 00:56:58 GARDIEN Guillaume SE 7
14 00:57:40 DERRIEN Yannick V1 5
15 00:58:56 BOCHEREAU Christophe SE 8
16 00:59:05 RIOU Thierry V1 6
17 00:59:12 ALLAIN Regis SE 9
18 00:59:19 LOZAHIC Yvon V1 7
19 00:59:28 STOHELLOU Julien SE 10
20 00:59:52 JOUAN Sophie SE 1
21 00:59:54 LE MOIGNE Arnaud SE 11
22 01:00:16 MENGUY Philippe SE 12
23 01:00:22 LE VAILLANT Nadine V1 1
24 01:00:34 LE GALL Xavier SE 13
25 01:00:40 DRILLET Laurent V1 8
26 01:00:44 LE GRUIEC Jean marc SE 14
27 01:00:47 HOUSSIER Yann V1 9
28 01:00:51 COM Romain SE 15
29 01:00:57 GRANNEC Stephane SE 16
30 01:00:59 LE GALLOU Fabrice V1 10
31 01:01:08 JANSSENS Eric V1 11
32 01:01:10 LE QUELLENEC Johan SE 17
33 01:01:28 LEON Claude V2 2
34 01:01:31 BUZULIER Gil V1 12
35 01:01:44 GUYOMAR Julien SE 18
36 01:01:51 ROPERS Claude V2 3
37 01:01:52 DANIEL Frederic SE 19
38 01:02:00 PERON Christian SE 20
39 01:02:13 LE SAUX Philippe V1 13
40 01:02:24 NICOLAS Daniel V2 4
41 01:02:26 PERRETON Emile V1 14
42 01:02:32 QUEMENER Bruno V2 5
43 01:02:42 LE COAT Stephane V1 15
44 01:03:14 LANNOU Didier V1 16
45 01:03:28 DAUPHIN Christian V2 6
46 01:03:41 GUEZOU Michel V1 17
47 01:04:15 LE JEAN Mickael SE 21
48 01:04:16 SIMOULIN Fabrice V1 18
49 01:04:33 CORRE Eric V2 7
50 01:05:07 LE FOLL Mathieu SE 22
51 01:05:12 LE GALL Jean luc V3 1
52 01:05:21 LE MEUR Eric V1 19
53 01:05:25 LEFEUVRE Yann SE 23
54 01:05:37 CHEVALIER Jean luc V1 20
55 01:05:58 PILORGE Sebastien V1 21
56 01:06:18 BERRIVIN Jacques V1 22
57 01:06:18 LE BOURDONNEC Pierrick V2 8
58 01:06:28 COURTOIS Pierre V3 2
59 01:06:48 LE CAER Yves marie SE 24
60 01:06:55 LE BIVIC Patrick V2 9
61 01:06:55 DENMAT Jean francois V3 3
62 01:07:06 LE BOURDONNEC Patrick SE 25
63 01:07:22 CONAN Christophe V1 23
64 01:07:29 HENRY Eric francois V1 24
65 01:07:33 LE MEN Dominique V2 10
66 01:07:55 LE CAM Michel V3 4
67 01:08:25 GAYIC Joel V3 5
68 01:08:30 LE TOULOUZAN Christophe V1 25
69 01:08:53 KLIMM Jean francois V2 11
70 01:09:11 DESPREZ Olivier SE 26
71 01:09:17 LE GALL Jean marc V2 12
72 01:09:51 LE GOFF Jean pierre V3 6
73 01:09:52 BERTHOU Yvon V2 13
74 01:09:52 LANTOINE Eric V1 26
75 01:10:15 PONGERARD Gerard V3 7
76 01:10:16 FEGER Christian V1 27
77 01:10:20 TILLY Laurent SE 27
78 01:10:29 SEVENOU Alain V2 14
79 01:10:31 LE GOFF Serge V1 28
80 01:10:40 CALVARY Sylvie V1 2
81 01:11:10 GESTIN David SE 28
82 01:11:34 HEUZE Christophe V1 29
83 01:11:36 CLOAREC Stephane SE 29
84 01:11:48 LE BAIL Kevin ES 1
85 01:11:55 LEON Ronan V1 30
86 01:12:00 LE GALL Olivier V1 31
87 01:12:14 LHEVEDER Pascal V2 15
88 01:12:17 HENRY Jean V4 1
89 01:12:23 LOPEZ Christophe V1 32
90 01:12:30 BOURRAT Philippe SE 30
91 01:12:43 MALGORN Joel V1 33
92 01:12:45 GAYIC Yvon V2 16
93 01:12:52 POUPON Rene V3 8
94 01:12:56 DEWEZ Olivier SE 31
95 01:13:16 LE BOUDER Alain V2 17
96 01:13:27 RIU Stephanie SE 2
97 01:13:50 LE MORVAN Claire V1 3
98 01:13:52 LE DOUX Jacques yves V1 34
99 01:13:52 LE MORVAN Yvon V2 18
100 01:13:53 JACOB Fabrice V1 35
101 01:14:35 BAJUL Beatrice V1 4
102 01:14:50 JORET David SE 32
103 01:15:17 GEFFROY Frederic SE 33
104 01:15:18 LE GOAZIOU Guy V3 9
105 01:15:21 LE NORMAND Jean michel V1 36
106 01:15:23 RODET Bruno V2 19
107 01:15:38 HUON Yves V3 10
108 01:15:38 LEURANGUER Karine V1 5
109 01:15:51 NIVET Sebastien SE 34
110 01:15:53 PINSON Jean paul V2 20
111 01:16:50 LE GROS Nicolas ES 2
112 01:17:26 LOPES Christophe V1 37
113 01:17:29 COSGUEN Jean jacques V2 21
114 01:17:55 MORVAN Stephane V1 38
115 01:18:00 JAMBET Armelle V2 1
116 01:18:44 GUYOMARD Eugene V3 11
117 01:18:44 TRAON Andre V3 12
118 01:19:27 LE BRAS David SE 35
119 01:19:39 TRAVER Joselyne V1 6
120 01:19:52 LAPLANCHE Michele V1 39
121 01:19:55 BAJUL Nathalie V1 7
122 01:22:04 LE SAOUT Herve V2 22
123 01:22:15 JEZEQUEL Aurelie SE 3
124 01:23:51 RICHARD Yannick V1 40
125 01:23:54 MORVAN Arnaud SE 36
126 01:24:56 LE PERU Thierry V1 41
127 01:24:56 LE CALVEZ Gilbert V2 23
128 01:28:21 LE GROS Yvon V2 24
129 01:31:03 GUINARD Aubin SE 37
130 01:38:58 CORDIER Evelyne V1 42
131 01:38:58 KERMANACH Morgane SE 4

Partager cet article

Repost 0

commentaires

Créer un blog gratuit sur overblog.com - Contact - CGU -